Regional Weather Roundup
Issued by NWS

Home | Current Version | Previous Version | Text Only | Print | Product List | Glossary On
Versions: 1 2 3 4 5 6 7 8 9 10 11 12 13 14 15 16 17 18 19 20 21 22 23 24 25 26 27 28 29 30 31 32 33 34 35 36 37 38 39 40 41 42 43 44 45 46 47 48 49 50
000
ASUS43 KTOP 120108
RWRKS

WEATHER ROUNDUP FOR KANSAS
NATIONAL WEATHER SERVICE GOODLAND KS
700 PM CST THU FEB 11 2016

NOTE:  "FAIR" INDICATES FEW OR NO CLOUDS BELOW 12,000 FEET WITH NO
SIGNIFICANT WEATHER AND/OR OBSTRUCTIONS TO VISIBILITY.

KSZ001>006-013>018-027>032-041>047-120200-
NORTHWEST KANSAS

CITY           SKY/WX    TMP DP  RH WIND       PRES   REMARKS
GOODLAND       CLOUDY    38  29  70 NW7       30.17R
HAYS           CLOUDY    41  27  56 NE12      30.13R
HILL CITY      CLOUDY    35  30  82 CALM      30.13R
RUSSELL        CLEAR     35  29  78 NE8       30.13R
$$

KSZ061>065-074>080-084>089-120200-
SOUTHWEST KANSAS

CITY           SKY/WX    TMP DP  RH WIND       PRES   REMARKS
DODGE CITY     CLEAR     47  31  53 S10       30.10S
ELKHART          N/A     59  21  23 S8          N/A
GARDEN CITY    CLOUDY    54  27  35 N15G22    30.13R
GREAT BEND     CLOUDY    43  27  52 E6        30.13R
LIBERAL        CLEAR     48  25  40 S8        30.10S
PRATT          CLOUDY    39  26  60 S6        30.13R
$$

KSZ066>073-081>083-090>101-120200-
SOUTHEAST KANSAS

CITY           SKY/WX    TMP DP  RH WIND       PRES   REMARKS
CHANUTE        PTCLDY    37  24  59 SE6       30.16F
COFFEYVILLE    CLOUDY    42  25  50 NE5       30.19S
HUTCHINSON     CLEAR     39  25  57 S3        30.15R
MEDICINE LODGE   N/A     44  31  60 S7        30.14R
NEWTON         CLEAR     39  21  48 SW6       30.16R
PARSONS        MOCLDY    38  25  59 CALM      30.19S
WICHITA INTL   PTCLDY    41  26  55 S3        30.14S
WICHITA JABRA  CLEAR     42  24  49 SW6       30.14S
WICHITA MCCONL CLEAR     42  26  53 SW3       30.14S
WINFIELD       CLEAR     44  25  47 E6        30.16S
$$

KSZ007>012-019>026-033>040-048>060-102>105-120200-
NORTHEAST KANSAS

CITY           SKY/WX    TMP DP  RH WIND       PRES   REMARKS
CONCORDIA      PTCLDY    31  25  78 CALM      30.16R
EMPORIA        PTCLDY    35  23  61 E7        30.16R
LAWRENCE       CLEAR     31  21  66 SE6       30.19S
MANHATTAN      PTCLDY    34  25  69 CALM      30.16R
MARYSVILLE     MOCLDY    32  27  80 W3        30.17F
OLATHE IND     CLOUDY    32  22  66 SE6       30.19F
OLATHE EXE     CLOUDY    32  21  64 S6        30.18F
SALINA         PTCLDY    36  25  64 CALM      30.18R
TOPEKA BILLARD PTCLDY    39  22  50 S3        30.19R
TOPEKA FORBES  CLOUDY    37  23  56 S5        30.17R
$$



USA.gov is the U.S. government's official web portal to all federal, state and local government web resources and services.